Location: Berlin
(42.3812°N, 71.6370°W)
Time: 23:52:18
(UTC+00:00)

Cosmos 2233 Rocket - Pass Details

Date: 15 November 2025
Orbit: 952 x 989 km, 82.9° (Epoch: 09 December)

Event Time Altitude Azimuth Distance (km) Brightness Sun altitude
Rises 09:39:35 0° 348° (NNW) 3,704 6.9 -21.8°
Reaches altitude 10° 09:42:08 10° 346° (NNW) 2,748 6.2 -21.3°
Maximum altitude 09:48:19 62° 267° (W) 1,097 3.9 -20.2°
Drops below altitude 10° 09:54:25 10° 189° (S) 2,706 6.3 -19.1°
Sets 09:56:55 0° 186° (S) 3,643 7.0 -18.6°
